Low Moor, IA

1:25 PM CST on February 26, 2017 (GMT -0600)
Clinton Municipal

Weather History for KCWI - November, 2012

Change the Weather History Date:

Thursday, November 22, 2012

  Actual Average Record
Temperature  
Mean Temperature 52 °F -  
Max Temperature 64 °F 45 °F 69 °F (2010)
Min Temperature 39 °F 26 °F 1 °F (2015)
Degree Days  
Heating Degree Days 14    
Growing Degree Days 2 (Base 50)    
Moisture  
Dew Point 39 °F    
Average Humidity 66    
Maximum Humidity 81    
Minimum Humidity 48    
Precipitation  
Precipitation 0.00 in - - ()
Sea Level Pressure  
Sea Level Pressure 29.91 in    
Wind  
Wind Speed 15 mph (SW)    
Max Wind Speed 30 mph    
Max Gust Speed 39 mph    
Visibility 9 miles    
Events      
Averages and records for this station are not official NWS values.
T = Trace of Precipitation, MM = Missing Value Source: NWS Daily Summary

Daily Weather History Graph

Daily Weather History Graph

Search for Another Location

Airport or City:

Trip Planner

Search our weather history database for the weather conditions in past years. The results will help you decide how hot, cold, wet, or windy it might be!

Date:

Astronomy

Nov. 22, 2012 Rise Set
Actual Time 6:59 AM CST 4:35 PM CST
Civil Twilight 6:29 AM CST 5:05 PM CST
Nautical Twilight 5:55 AM CST 5:39 PM CST
Astronomical Twilight 5:21 AM CST 6:12 PM CST
Moon 1:24 PM CST (11/22) 1:15 AM CST (11/22)
Length of Visible Light 10h 36m
Length of Day
9h 35m
Waxing Gibbous, 71% of the Moon is Illuminated
Nov 22
Waxing Gibbous
Nov 28
Full
Dec 6
Last Quarter
Dec 13
New
Dec 19
First Quarter

Hourly Weather History & Observations

Time (CST) Temp. Windchill Dew Point Humidity Pressure Visibility Wind Dir Wind Speed Gust Speed Precip Events Conditions
12:15 AM 44.6 °F 39.7 °F 37.4 °F 76% 30.05 in 9.0 mi South 9.2 mph - N/A   Clear
12:35 AM 42.8 °F 37.5 °F 37.4 °F 81% 30.05 in 8.0 mi South 9.2 mph - N/A   Clear
12:55 AM 44.6 °F 39.2 °F 39.2 °F 81% 30.04 in 7.0 mi South 10.4 mph - N/A   Clear
1:15 AM 44.6 °F 39.7 °F 39.2 °F 81% 30.03 in 7.0 mi South 9.2 mph - N/A   Clear
1:35 AM 46.4 °F 41.5 °F 39.2 °F 76% 30.02 in 5.0 mi South 10.4 mph - N/A   Clear
1:55 AM 46.4 °F 40.7 °F 41.0 °F 81% 30.02 in 5.0 mi South 12.7 mph - N/A   Clear
2:15 AM 46.4 °F 41.5 °F 41.0 °F 81% 30.02 in 5.0 mi South 10.4 mph - N/A   Clear
2:35 AM 46.4 °F 41.5 °F 39.2 °F 76% 30.01 in 4.0 mi South 10.4 mph - N/A   Clear
2:55 AM 46.4 °F 41.1 °F 41.0 °F 81% 30.00 in 4.0 mi South 11.5 mph - N/A   Clear
3:15 AM 46.4 °F 40.7 °F 39.2 °F 76% 29.99 in 5.0 mi South 12.7 mph - N/A   Clear
3:35 AM 46.4 °F 40.4 °F 39.2 °F 76% 29.98 in 5.0 mi South 13.8 mph - N/A   Clear
3:55 AM 46.4 °F 40.4 °F 39.2 °F 76% 29.97 in 5.0 mi South 13.8 mph - N/A   Clear
4:15 AM 46.4 °F 40.7 °F 39.2 °F 76% 29.97 in 5.0 mi South 12.7 mph - N/A   Clear
4:35 AM 46.4 °F 41.1 °F 39.2 °F 76% 29.96 in 5.0 mi South 11.5 mph - N/A   Clear
4:55 AM 46.4 °F 40.7 °F 39.2 °F 76% 29.96 in 5.0 mi South 12.7 mph - N/A   Clear
5:15 AM 46.4 °F 40.7 °F 39.2 °F 76% 29.95 in 6.0 mi South 12.7 mph - N/A   Clear
5:35 AM 46.4 °F 40.7 °F 39.2 °F 76% 29.94 in 7.0 mi South 12.7 mph - N/A   Clear
5:55 AM 46.4 °F 40.7 °F 39.2 °F 76% 29.94 in 7.0 mi South 12.7 mph - N/A   Clear
6:15 AM 46.4 °F 41.1 °F 39.2 °F 76% 29.93 in 7.0 mi SSE 11.5 mph - N/A   Clear
6:35 AM 44.6 °F 39.2 °F 37.4 °F 76% 29.93 in 7.0 mi SSE 10.4 mph - N/A   Clear
6:55 AM 44.6 °F 39.2 °F 37.4 °F 76% 29.92 in 6.0 mi South 10.4 mph - N/A   Clear
7:15 AM 46.4 °F 41.1 °F 37.4 °F 71% 29.92 in 7.0 mi SSE 11.5 mph - N/A   Clear
7:35 AM 46.4 °F 41.1 °F 39.2 °F 76% 29.91 in 7.0 mi SSE 11.5 mph - N/A   Scattered Clouds
7:55 AM 48.2 °F - 39.2 °F 71% 29.91 in 9.0 mi South 16.1 mph - N/A   Overcast
8:15 AM 51.8 °F - 39.2 °F 62% 29.90 in 7.0 mi South 18.4 mph 24.2 mph N/A   Mostly Cloudy
8:35 AM 51.8 °F - 39.2 °F 62% 29.90 in 8.0 mi South 18.4 mph 26.5 mph N/A   Mostly Cloudy
8:55 AM 53.6 °F - 39.2 °F 58% 29.90 in 10.0 mi South 15.0 mph 19.6 mph N/A   Scattered Clouds
9:15 AM 55.4 °F - 39.2 °F 54% 29.90 in 10.0 mi SSW 18.4 mph 23.0 mph N/A   Clear
9:35 AM 55.4 °F - 39.2 °F 54% 29.89 in 10.0 mi SSW 17.3 mph - N/A   Clear
9:55 AM 55.4 °F - 39.2 °F 54% 29.89 in 10.0 mi SSW 20.7 mph 25.3 mph N/A   Clear
10:15 AM 57.2 °F - 41.0 °F 55% 29.88 in 10.0 mi SSW 18.4 mph 25.3 mph N/A   Clear
10:35 AM 59.0 °F - 41.0 °F 51% 29.87 in 10.0 mi SSW 26.5 mph - N/A   Clear
10:55 AM 60.8 °F - 42.8 °F 52% 29.86 in 10.0 mi SSW 23.0 mph 27.6 mph N/A   Clear
11:15 AM 60.8 °F - 42.8 °F 52% 29.84 in 10.0 mi SSW 21.9 mph 26.5 mph N/A   Clear
11:35 AM 62.6 °F - 42.8 °F 48% 29.83 in 10.0 mi SSW 24.2 mph 29.9 mph N/A   Clear
11:55 AM 62.6 °F - 42.8 °F 48% 29.83 in 10.0 mi SSW 21.9 mph 28.8 mph N/A   Clear
12:15 PM 64.4 °F - 44.6 °F 49% 29.82 in 10.0 mi SSW 19.6 mph - N/A   Clear
12:35 PM 62.6 °F - 42.8 °F 48% 29.80 in 10.0 mi SW 21.9 mph 31.1 mph N/A   Clear
12:55 PM 62.6 °F - 42.8 °F 48% 29.80 in 10.0 mi SSW 24.2 mph 28.8 mph N/A   Clear
1:15 PM 62.6 °F - 42.8 °F 48% 29.79 in 10.0 mi SW 24.2 mph 34.5 mph N/A   Clear
1:35 PM 60.8 °F - 42.8 °F 52% 29.79 in 10.0 mi SW 17.3 mph 28.8 mph N/A   Partly Cloudy
1:55 PM 57.2 °F - 44.6 °F 63% 29.78 in 10.0 mi SSW 19.6 mph 29.9 mph N/A   Scattered Clouds
2:15 PM 57.2 °F - 44.6 °F 63% 29.78 in 10.0 mi SSW 18.4 mph 29.9 mph N/A   Clear
2:35 PM 57.2 °F - 44.6 °F 63% 29.78 in 10.0 mi SW 24.2 mph 28.8 mph N/A   Partly Cloudy
2:55 PM 55.4 °F - 44.6 °F 67% 29.78 in 10.0 mi SSW 17.3 mph 26.5 mph N/A   Clear
3:15 PM 57.2 °F - 44.6 °F 63% 29.78 in 10.0 mi SSW 18.4 mph 23.0 mph N/A   Clear
3:35 PM 57.2 °F - 46.4 °F 67% 29.79 in 10.0 mi SW 15.0 mph - N/A   Clear
3:55 PM 57.2 °F - 46.4 °F 67% 29.78 in 10.0 mi SSW 18.4 mph 23.0 mph N/A   Clear
4:15 PM 57.2 °F - 46.4 °F 67% 29.79 in 10.0 mi SSW 18.4 mph 23.0 mph N/A   Partly Cloudy
4:35 PM 57.2 °F - 46.4 °F 67% 29.79 in 10.0 mi SSW 17.3 mph 21.9 mph N/A   Partly Cloudy
4:55 PM 57.2 °F - 46.4 °F 67% 29.79 in 10.0 mi SSW 16.1 mph - N/A   Partly Cloudy
5:15 PM 57.2 °F - 46.4 °F 67% 29.79 in 10.0 mi SW 16.1 mph - N/A   Partly Cloudy
5:35 PM 57.2 °F - 46.4 °F 67% 29.79 in 10.0 mi SW 19.6 mph 24.2 mph N/A   Mostly Cloudy
6:15 PM 57.2 °F - 46.4 °F 67% 29.81 in 10.0 mi WSW 16.1 mph - N/A   Clear
6:35 PM 57.2 °F - 44.6 °F 63% 29.84 in 10.0 mi West 23.0 mph 38.0 mph N/A   Clear
6:55 PM 53.6 °F - 39.2 °F 58% 29.86 in 10.0 mi WNW 17.3 mph - N/A   Clear
7:15 PM 50.0 °F - 37.4 °F 62% 29.88 in 10.0 mi NW 23.0 mph 29.9 mph N/A   Clear
7:35 PM 46.4 °F 37.5 °F 35.6 °F 66% 29.90 in 10.0 mi WNW 27.6 mph 35.7 mph N/A   Clear
7:55 PM 44.6 °F 35.3 °F 32.0 °F 61% 29.92 in 10.0 mi WNW 26.5 mph 38.0 mph N/A   Clear
8:15 PM 42.8 °F 33.8 °F 33.8 °F 70% 29.93 in 10.0 mi WNW 21.9 mph 29.9 mph N/A   Clear
8:35 PM 42.8 °F 34.3 °F 32.0 °F 66% 29.95 in 10.0 mi WNW 19.6 mph 26.5 mph N/A   Clear
8:55 PM 42.8 °F 33.8 °F 32.0 °F 66% 29.96 in 10.0 mi WNW 21.9 mph 32.2 mph N/A   Clear
9:15 PM 41.0 °F 29.8 °F 30.2 °F 65% 29.96 in 10.0 mi WNW 29.9 mph 36.8 mph N/A   Clear
9:35 PM 39.2 °F 28.3 °F 30.2 °F 70% 29.97 in 10.0 mi WNW 25.3 mph 36.8 mph N/A   Clear
9:55 PM 39.2 °F 27.4 °F 28.4 °F 65% 29.98 in 10.0 mi WNW 29.9 mph 39.1 mph N/A   Clear
10:15 PM 39.2 °F 27.4 °F 28.4 °F 65% 29.99 in 10.0 mi WNW 29.9 mph 38.0 mph N/A   Mostly Cloudy
10:35 PM 39.2 °F 28.3 °F 28.4 °F 65% 30.00 in 10.0 mi WNW 25.3 mph 31.1 mph N/A   Overcast
10:55 PM 39.2 °F 28.3 °F 28.4 °F 65% 30.00 in 10.0 mi WNW 25.3 mph 36.8 mph N/A   Overcast
11:15 PM 39.2 °F 28.3 °F 28.4 °F 65% 30.01 in 10.0 mi WNW 25.3 mph 32.2 mph N/A   Overcast
11:35 PM 39.2 °F 29.6 °F 28.4 °F 65% 30.01 in 10.0 mi WNW 19.6 mph 32.2 mph N/A   Overcast
11:55 PM 39.2 °F 29.6 °F 28.4 °F 65% 30.02 in 10.0 mi WNW 19.6 mph 27.6 mph N/A   Overcast